{"data":{"norad_id":65450,"intl_designator":"2025-194S","name":"STARLINK-34970","alt_names":[],"object_type":"PAYLOAD","status":"ACTIVE","operator":null,"country":"US","launch_date":"2025-09-03","launch_site_code":"AFWTR","launch_vehicle":null,"mission":null,"orbit_class":"UNKNOWN","rcs_meters":null,"size_class":null,"mass_kg":null,"dimensions":null,"purposes":["comms"],"wikipedia_slug":null,"has_3d_model":false,"image_url":null,"decayed_at":null,"tle_current":{"epoch":"2026-09-20T19:46:59.579616Z","epoch_age_seconds":86914,"freshness":"FRESH","line1":"1 65450U 25194S   26263.82430069  .00011088  00000+0  34524-3 0  9990","line2":"2 65450  97.2834 113.4051 0001987  90.3370 269.8101 15.33445326 59116","mean_motion":15.33445326,"eccentricity":0.0001987,"inclination_deg":97.2834,"raan_deg":113.4051,"arg_perigee_deg":90.337,"mean_anomaly_deg":269.8101,"bstar":0.00034524,"rev_number":5911,"period_min":93.906184693017,"perigee_km":464.18236547372,"apogee_km":466.9020435896,"semimajor_km":6843.6792045317,"source":"CELESTRAK","updated_at":"2026-09-21T09:00:35.611873Z"}}}